George Town, Cayman Islands

3:56 PM EST on December 10, 2016 (GMT -0500)
Roberts International

Weather History for MWCR - December, 2014

Change the Weather History Date:

Sunday, December 28, 2014

  Actual Average Record
Temperature  
Mean Temperature 80 °F -  
Max Temperature 84 °F 80 °F 86 °F (1997)
Min Temperature 76 °F 73 °F 66 °F (2010)
Cooling Degree Days 15    
Growing Degree Days 30 (Base 50)    
Moisture  
Dew Point 76 °F    
Average Humidity 86    
Maximum Humidity 95    
Minimum Humidity 70    
Precipitation  
Precipitation 0.00 in - - ()
Sea Level Pressure  
Sea Level Pressure 30.02 in    
Wind  
Wind Speed 7 mph ()    
Max Wind Speed 13 mph    
Max Gust Speed -    
Visibility 6.2 miles    
Events      
Averages and records for this station are not official NWS values.
T = Trace of Precipitation, MM = Missing Value Source: Averaged Metar Reports

Daily Weather History Graph

Daily Weather History Graph

Search for Another Location

Airport or City:

Trip Planner

Search our weather history database for the weather conditions in past years. The results will help you decide how hot, cold, wet, or windy it might be!

Date:

Astronomy

Dec. 28, 2014 Rise Set
Actual Time 6:57 AM EST 5:56 PM EST
Civil Twilight 6:33 AM EST 6:20 PM EST
Nautical Twilight 6:06 AM EST 6:47 PM EST
Astronomical Twilight 5:39 AM EST 7:14 PM EST
Moon 12:14 PM EST (12/28) No Moon Set
Length of Visible Light 11h 46m
Length of Day
10h 58m
Waxing Crescent, 49% of the Moon is Illuminated
Dec 28
Waxing Crescent
Dec 28
First Quarter
Jan 4
Full
Jan 13
Last Quarter
Jan 20
New

Hourly Weather History & Observations

Time (EST) Temp. Heat Index Dew Point Humidity Pressure Visibility Wind Dir Wind Speed Gust Speed Precip Events Conditions
6:00 AM 77.0 °F - 75.2 °F 94% 30.01 in 6.2 mi ENE 6.9 mph - N/A   Partly Cloudy
7:00 AM 77 °F - 76 °F 95% 30.03 in 6 mi ENE 4.6 mph - -   Scattered Clouds
7:00 AM 77.0 °F - 75.2 °F 94% 30.01 in 6.2 mi ENE 4.6 mph - N/A   Partly Cloudy
8:00 AM 78.8 °F - 75.2 °F 89% 30.04 in 6.2 mi ENE 5.8 mph - N/A   Partly Cloudy
9:00 AM 80.6 °F 87.1 °F 77.0 °F 89% 30.06 in 6.2 mi ENE 10.4 mph - N/A   Partly Cloudy
10:00 AM 82.4 °F 90.9 °F 77.0 °F 84% 30.06 in 6.2 mi NE 9.2 mph - N/A   Scattered Clouds
11:00 AM 82.4 °F 90.9 °F 77.0 °F 84% 30.06 in 6.2 mi NE 12.7 mph - N/A   Scattered Clouds
12:00 PM 82.4 °F 90.9 °F 77.0 °F 84% 30.04 in 6.2 mi NE 10.4 mph - N/A   Mostly Cloudy
1:00 PM 81 °F - 77 °F 84% 30.03 in 6 mi NE 8.1 mph - -   Mostly Cloudy
1:00 PM 80.6 °F 87.1 °F 77.0 °F 89% 30.01 in 6.2 mi NE 8.1 mph - N/A   Mostly Cloudy
2:00 PM 84.2 °F 92.3 °F 75.2 °F 74% 30.01 in 6.2 mi ESE 11.5 mph - N/A   Scattered Clouds
3:00 PM 84.2 °F 92.3 °F 75.2 °F 74% 29.98 in 6.2 mi East 11.5 mph - N/A   Scattered Clouds
4:00 PM 84.2 °F 90.9 °F 73.4 °F 70% 29.98 in 6.2 mi ESE 9.2 mph - N/A   Partly Cloudy
4:50 PM 82.4 °F 90.9 °F 77.0 °F 84% 29.98 in 6.2 mi ENE 11.5 mph - N/A   Scattered Clouds
5:50 PM 80.6 °F 86.2 °F 75.2 °F 84% 29.98 in 6.2 mi ENE 10.4 mph - N/A   Partly Cloudy
6:50 PM 78.8 °F - 75.2 °F 89% 30.01 in 6.2 mi ENE 8.1 mph - N/A   Partly Cloudy
7:00 PM 79 °F - 75 °F 84% 30.02 in 6 mi ENE 8.1 mph - -   Scattered Clouds
7:50 PM 78.8 °F - 75.2 °F 89% 30.04 in 6.2 mi ENE 6.9 mph - N/A   Partly Cloudy
8:58 PM 78.8 °F - 75.2 °F 89% 30.04 in 6.2 mi ENE 6.9 mph - N/A   Partly Cloudy
9:50 PM 78.8 °F - 75.2 °F 89% 30.04 in 6.2 mi ENE 9.2 mph - N/A   Partly Cloudy